Regional Weather Roundup
Issued by NWS Sterling, VA

Home | Current Version | Previous Version | Graphics & Text | Print | Product List | Glossary On
Versions: 1 2 3 4 5 6 7 8 9 10 11 12 13 14 15 16 17 18 19 20 21 22 23 24 25 26 27 28 29 30 31 32 33 34 35 36 37 38 39 40 41 42 43 44 45 46 47 48 49 50
000
ASUS41 KLWX 310710
RWRLWX

REGIONAL WEATHER ROUNDUP
NATIONAL WEATHER SERVICE BALTIMORE MD/WASHINGTON DC
200 AM EST SAT JAN 31 2015

Note: "FAIR" indicates few or no clouds below 12,000 feet
with no significant weather and/or obstructions to visibility.
 TC=TEMPERATURE CELSIUS

 * =Non NWS site. Station does not report precipitation (e.g. rain,
    snow, etc.), thunder, or fog.

DCZ001-MDZ009-015-VAZ040>042-051-053>054-310800-
WASHINGTON METRO

CITY           SKY/WX    TMP DP  RH WIND       PRES   REMARKS
WASHINGTON NAT CLEAR     22   3  44 NW18G28   30.31R WCI   7
DULLES         CLEAR     18   2  49 NW16G26   30.29R WCI   3
ANDREWS AFB    CLEAR     19   3  50 NW23G32   30.26R WCI   2
FT BELVOIR     CLEAR     20   2  46 NW17G25   30.31R WCI   5
QUANTICO       CLEAR     21   4  47 N9        30.33R WCI  11
COLLEGE PARK*  CLEAR     21   5  49 NW10G23   30.28R WCI  10
LEESBURG*      CLEAR     19   9  63 NW14G22   30.30S WCI   6
MANASSAS*      CLEAR     19   9  63 NW15      30.30R WCI   5
GAITHERSBURG*  CLEAR     16   3  57 NW16G22   30.29R WCI   0

$$

MDZ006>007-011-014-310800-
BALTIMORE METRO

CITY           SKY/WX    TMP DP  RH WIND       PRES   REMARKS
BWI AIRPORT    CLEAR     19   1  45 NW17G24   30.26R WCI   4
MD SCIENCE CTR   N/A     20  -1  40 MISG      30.27R
MARTIN STATE   CLEAR     21   5  49 W18G24    30.26R WCI   6
ANNAPOLIS      CLEAR     21   4  47 NW15G29   30.25R WCI   8
FORT MEADE*    CLEAR     19   3  49 NW14G23   30.29R WCI   6

$$

MDZ012-015-019>023-310800-
MARYLAND EASTERN SHORE

CITY           SKY/WX    TMP DP  RH WIND       PRES   REMARKS
OCEAN CITY     CLEAR     22   6  50 NW23G31   30.16R WCI   6
SALISBURY      FAIR      24   5  44 NW20G35   30.20R WCI  10
BAY BRIDGE AP*   N/A     21   3  45 NW20G28   30.26R WCI   6
CAMBRIDGE*     CLEAR     25   3  39 NW18G26   30.23R WCI  11
EASTON*        CLEAR     22   6  49 NW20G29   30.27R WCI   7

$$

MDZ017>025-310800-
SOUTHERN MARYLAND

CITY           SKY/WX    TMP DP  RH WIND       PRES   REMARKS
PATUXENT RIVER CLEAR     22   5  48 NW25G36   30.25R WCI   5
ST INIGOES     CLEAR     22   4  46 NW12G21   30.25R WCI  10
LEONARDTOWN*   CLEAR     21   3  45 W10G18    30.27R WCI  10

$$

MDZ003>005-310800-
NORTH CENTRAL MARYLAND

CITY           SKY/WX    TMP DP  RH WIND       PRES   REMARKS
FREDERICK*     MOCLDY    21   3  45 N12G18    30.32R WCI   9
HAGERSTOWN APT PTCLDY    17   3  54 NW6G17    30.27S
WESTMINSTER*   PTCLDY    14   0  52 NW13G22   30.22R WCI   0

$$

MDZ501>502-310800-
WESTERN MARYLAND

CITY           SKY/WX    TMP DP  RH WIND       PRES   REMARKS
OAKLAND*       CLOUDY     3 N/A N/A W10       30.18R WCI -12
CUMBERLAND*    PTCLDY    18   3  53 W6        30.39R

$$

VAZ025>031-310800-
SHENANDOAH VALLEY

CITY           SKY/WX    TMP DP  RH WIND       PRES   REMARKS
WINCHESTER*    CLEAR     19   3  49 NW7G20    30.29S
FRONT ROYAL*   FAIR      19   5  53 NE5       30.28R
LURAY*         FAIR      23   7  50 SW6       30.27R
NEW MARKET*    FAIR      19   4  53 CALM      30.27R
STAUNTON*      CLEAR     19   5  54 CALM      30.27R
WAYNESBORO*    FAIR      19   2  47 NW7       30.23R

$$

WVZ021-048>050-054>055-310800-
EASTERN WEST VIRGINIA PANHANDLE

CITY           SKY/WX    TMP DP  RH WIND       PRES   REMARKS
MARTINSBURG    CLEAR     18   2  49 NW15      30.31R WCI   4
PETERSBURG*    CLEAR     19   2  49 NW6       30.33R

$$

VAZ036>039-050-310800-
CENTRAL FOOTHILLS

CITY           SKY/WX    TMP DP  RH WIND       PRES   REMARKS
CHARLOTTESVILL CLEAR     23   3  42 NW6       30.26R
CULPEPER*      CLEAR     19   7  58 CALM      30.29R
ORANGE*        CLEAR     18  10  73 CALM      30.29R
GORDONSVILLE*  FAIR      19   7  61 CALM      30.27R
WARRENTON*     FAIR      22  10  59 NW14G24   30.28R WCI   9

$$

VAZ055>057-310800-
NORTH AND CENTRAL PIEDMONT

CITY           SKY/WX    TMP DP  RH WIND       PRES   REMARKS
FREDERICKSBRG* CLEAR     23   7  49 N6        30.30R
STAFFORD*      CLEAR     20   4  49 CALM      30.34R

$$

NCZ024-NYZ072-PAZ021-071-VAZ022-071-310800-
OTHER REGIONAL OBSERVATIONS

CITY           SKY/WX    TMP DP  RH WIND       PRES   REMARKS
NEW YORK CITY  CLEAR     18   1  47 NW18G31   30.07S WCI   2
PHILADELPHIA   CLEAR     18  -1  43 NW20G32   30.18R WCI   2
PITTSBURGH     CLEAR      6   3  87 W5        30.37S
ROANOKE        CLEAR     24   3  40 NW10      30.30S WCI  14
RICHMOND       CLEAR     24   8  50 N9        30.28R WCI  14
RALEIGH        PTCLDY    26   8  46 CALM      30.31R

$$

ANZ530>537-310800-
MARINE OBSERVATIONS

STATION/POSITION TIME  TEMP    WIND        PRES
                       AIR SEA DIR/SP/G
                 (UTC) (F)     (DEG/KT/KT) (MB)
THOMAS PT LIGHT  0700   21 35  320/ 20/ 23 1025.4R
BALT KEY BRIDGE  0700   20     290/ 24/ 30 1024.0R
COVE POINT       0700   21     340/ 26/ 31 1023.9R
LEWISETTA        0700   23 35  330/ 17/ 26 1024.9F
SOLOMONS ISLAND  0700      36                N/A
PINEY POINT      0700          340/ 32/ 35   N/A

$$




USA.gov is the U.S. government's official web portal to all federal, state and local government web resources and services.